User: anonymous   Login
Location: Baia Mare
(47.6567°N, 23.5850°E)
Time: 23:14:36
(UTC+03:00)
Language:

ISS - Orbit

View from above orbital plane
View from above orbital plane
View from above satellite
View from above satellite

Ground track
Ground track

The orbit data is extracted from the following two-line orbital elements,

1 25544U 98067A   18292.70838163  .00016717  00000-0  10270-3 0  9038
2 25544  51.6391 118.1943 0003697 303.1658  56.9140 15.53825292 17875
Epoch (UTC): 19 October 2018 17:00:04
Eccentricity: 0.0003697
inclination: 51.6391°
perigee height: 403 km
apogee height: 408 km
right ascension of ascending node: 118.1943°
argument of perigee: 303.1658°
revolutions per day: 15.53825292
mean anomaly at epoch: 56.9140°
orbit number at epoch: 1787

The dashed part of the orbit path shows where the satellite is in the earth's shadow,  

DLR